Location: Star Dogged Moon Observatory
(29.7756°N, 82.0783°W)
Time: 23:28:54
(UTC-04:00)

Amateur Radio Satellites - All Passes

Search period start: 16 September 2014 22:58
Search period end: 17 September 2014 22:58
Location: Star Dogged Moon Observatory, 29.7756°N, 82.0783°W

Satellite Date Start Highest point End Downlink Frequencies (MHz)
Time Altitude Azimuth
FUNcube-1 16 Sep 23:15:16 23:19:34 84° 258° (WSW) 23:24:00 145.950 - 145.970 MHz USB
Oscar 11 16 Sep 23:35:54 23:38:41 17° 265° (W) 23:41:30 145.825 FM, Beacon 2401.500 USB
Sapphire 16 Sep 23:43:24 23:48:49 71° 248° (WSW) 23:54:11 437.095 MHz 1200 baud AX-25 AFSK
SO-50 16 Sep 23:58:44 00:02:57 43° 301° (WNW) 00:07:17 436.795 FM
PCSat 17 Sep 00:11:14 00:16:05 34° 252° (WSW) 00:20:54 145.825 MHz
UOSAT-12 17 Sep 00:15:12 00:18:07 17° 108° (ESE) 00:21:04 437.025 FM, 437.400 FM
PANSAT 17 Sep 01:53:03 01:55:21 15° 155° (SSE) 01:57:39 not established
UOSAT-12 17 Sep 01:53:40 01:57:54 37° 302° (WNW) 02:02:14 437.025 FM, 437.400 FM
Oscar 16 17 Sep 02:05:37 02:09:34 22° 96° (E) 02:13:29 437.025 USB, Beacon 2401.1428
ISS 17 Sep 02:27:53 02:28:13 10° 124° (SE) 02:28:34 145.800 FM
AO-Echo 17 Sep 02:42:49 02:46:41 23° 97° (E) 02:50:37 ?
ITAMSAT 1 17 Sep 02:42:49 02:46:36 20° 96° (E) 02:50:22 435.822 SSB
Uribyol 2 17 Sep 02:47:28 02:51:40 24° 97° (E) 02:55:52 436.500 FM
JAS-1B 17 Sep 02:49:42 02:54:27 27° 98° (E) 02:59:15 435.800 - 435.900 CW/SSB
Oscar 19 17 Sep 03:05:31 03:10:42 85° 283° (WNW) 03:15:50 437.125 CW, 437.150 USB
AO-27 17 Sep 03:15:58 03:20:59 47° 100° (E) 03:25:59 436.795 MHz FM
PANSAT 17 Sep 03:31:28 03:35:08 44° 166° (SSE) 03:38:48 not established
Saudisat 1A 17 Sep 03:40:05 03:44:13 38° 59° (ENE) 03:48:19 436.775 MHz
Oscar 16 17 Sep 03:44:19 03:48:52 32° 289° (WNW) 03:53:25 437.025 USB, Beacon 2401.1428
Gurwin Techsat 1B 17 Sep 03:51:45 03:56:52 48° 100° (E) 04:01:58 435.225 FM
ISS 17 Sep 04:01:22 04:04:35 46° 316° (NW) 04:07:48 145.800 FM
AO-Echo 17 Sep 04:21:16 04:25:20 28° 288° (WNW) 04:29:31 ?
ITAMSAT 1 17 Sep 04:21:22 04:26:06 36° 288° (WNW) 04:30:49 435.822 SSB
Uribyol 2 17 Sep 04:26:33 04:31:03 30° 289° (WNW) 04:35:32 436.500 FM
TMSAT-1 17 Sep 04:30:35 04:35:54 88° 102° (ESE) 04:41:13 436.925 FM
JAS-1B 17 Sep 04:40:21 04:45:03 27° 291° (WNW) 04:49:45 435.800 - 435.900 CW/SSB
RS-15 17 Sep 04:56:09 05:07:11 67° 112° (ESE) 05:17:55 29.354 - 29.394 USB, Beacon 29.352 USB
AO-27 17 Sep 04:56:58 05:00:03 16° 293° (WNW) 05:03:08 436.795 MHz FM
PANSAT 17 Sep 05:11:21 05:15:10 73° 179° (S) 05:19:00 not established
OPAL 17 Sep 05:18:21 05:23:27 71° 74° (ENE) 05:28:38 ?
Saudisat 1A 17 Sep 05:21:01 05:23:24 15° 252° (WSW) 05:25:48 436.775 MHz
Uosat F 17 Sep 05:28:11 05:33:03 50° 101° (E) 05:37:55 435.120 FM
Oscar 10/S400 17 Sep 05:29:16 06:25:16 16° 259° (W) 08:00:11 145.825 - 145.975 CW/USB, Beacon 145.810 USB
Gurwin Techsat 1B 17 Sep 05:33:14 05:36:22 16° 293° (WNW) 05:39:31 435.225 FM
KITSAT 1 17 Sep 05:38:08 05:45:40 41° 58° (ENE) 05:53:07 435.175 FM
AO-7 17 Sep 05:40:49 05:49:05 70° 105° (ESE) 05:57:19 29.400 - 29.500 MHz
JAS-2 17 Sep 06:46:41 06:52:33 44° 101° (E) 06:59:07 435.800 - 435.900 CW/SSB, 435.910 FM
PANSAT 17 Sep 06:51:30 06:55:15 53° 191° (S) 06:59:00 not established
Hamsat 17 Sep 06:52:44 06:56:43 39° 99° (E) 07:00:38 145.90 MHz
Uosat F 17 Sep 07:08:48 07:11:22 14° 293° (WNW) 07:13:55 435.120 FM
RS-15 17 Sep 07:10:56 07:20:09 30° 311° (NW) 07:29:20 29.354 - 29.394 USB, Beacon 29.352 USB
STRAND 1 17 Sep 07:33:34 07:38:38 80° 76° (ENE) 07:43:44 ?
KITSAT 1 17 Sep 07:33:43 07:40:49 36° 253° (WSW) 07:47:55 435.175 FM
AO-7 17 Sep 07:35:20 07:41:03 21° 300° (WNW) 07:46:48 29.400 - 29.500 MHz
Hamsat 17 Sep 08:30:29 08:32:15 12° 291° (WNW) 08:34:01 145.90 MHz
PANSAT 17 Sep 08:32:12 08:35:07 21° 202° (SSW) 08:38:01 not established
JAS-2 17 Sep 08:32:39 08:37:21 24° 290° (WNW) 08:42:29 435.800 - 435.900 CW/SSB, 435.910 FM
SO-50 17 Sep 08:35:55 08:40:16 33° 58° (ENE) 08:44:39 436.795 FM
SO-67 17 Sep 08:43:40 08:47:03 56° 283° (WNW) 08:50:25 435.3500 MHz FM
MaSat-1 17 Sep 09:28:45 09:33:41 85° 291° (WNW) 09:38:46 437.345 MHz
HO-68 17 Sep 09:29:16 09:35:02 26° 97° (E) 09:40:45 435.675 MHz FM
UKube-1 17 Sep 10:06:49 10:09:56 19° 96° (E) 10:13:01 145.840 MHz, 145.915 MHz
SO-50 17 Sep 10:16:57 10:20:37 22° 250° (WSW) 10:24:16 436.795 FM
UOSAT-12 17 Sep 10:28:51 10:33:11 36° 58° (ENE) 10:37:26 437.025 FM, 437.400 FM
ISS 17 Sep 10:36:15 10:37:35 12° 34° (NE) 10:38:55 145.800 FM
FUNcube-1 17 Sep 11:10:45 11:14:51 31° 97° (E) 11:18:53 145.950 - 145.970 MHz USB
HO-68 17 Sep 11:16:01 11:22:47 47° 290° (WNW) 11:29:34 435.675 MHz FM
Oscar 11 17 Sep 11:27:52 11:32:07 56° 284° (WNW) 11:36:20 145.825 FM, Beacon 2401.500 USB
UKube-1 17 Sep 11:42:24 11:46:03 27° 288° (WNW) 11:49:41 145.840 MHz, 145.915 MHz
UOSAT-12 17 Sep 12:09:53 12:13:00 18° 251° (WSW) 12:16:05 437.025 FM, 437.400 FM
ISS 17 Sep 12:11:17 12:14:33 57° 229° (SW) 12:17:48 145.800 FM
Sapphire 17 Sep 12:36:20 12:41:12 36° 108° (ESE) 12:46:06 437.095 MHz 1200 baud AX-25 AFSK
FUNcube-1 17 Sep 12:47:46 12:50:57 19° 290° (WNW) 12:54:07 145.950 - 145.970 MHz USB
PCSat 17 Sep 13:03:03 13:08:25 75° 112° (ESE) 13:13:49 145.825 MHz
Oscar 16 17 Sep 13:17:23 13:20:49 18° 68° (ENE) 13:24:16 437.025 USB, Beacon 2401.1428
JAS-1B 17 Sep 13:27:53 13:33:54 21° 67° (ENE) 13:39:20 435.800 - 435.900 CW/SSB
AO-Echo 17 Sep 13:51:17 13:54:09 16° 69° (ENE) 13:56:58 ?
ITAMSAT 1 17 Sep 13:55:47 13:59:02 17° 67° (ENE) 14:02:18 435.822 SSB
Uribyol 2 17 Sep 14:00:06 14:03:50 21° 68° (ENE) 14:07:34 436.500 FM
RS-15 17 Sep 14:05:02 14:15:30 43° 55° (NE) 14:26:19 29.354 - 29.394 USB, Beacon 29.352 USB
Oscar 19 17 Sep 14:16:12 14:21:21 75° 76° (ENE) 14:26:33 437.125 CW, 437.150 USB
Sapphire 17 Sep 14:20:23 14:24:38 23° 302° (WNW) 14:28:55 437.095 MHz 1200 baud AX-25 AFSK
AO-27 17 Sep 14:28:23 14:33:08 39° 72° (ENE) 14:37:55 436.795 MHz FM
PCSat 17 Sep 14:50:11 14:52:21 12° 308° (NW) 14:54:31 145.825 MHz
Oscar 16 17 Sep 14:54:57 14:59:48 41° 261° (W) 15:04:41 437.025 USB, Beacon 2401.1428
Gurwin Techsat 1B 17 Sep 15:06:58 15:11:55 42° 73° (ENE) 15:16:53 435.225 FM
JAS-1B 17 Sep 15:14:42 15:23:56 71° 257° (WSW) 15:31:48 435.800 - 435.900 CW/SSB
Oscar 10/S400 17 Sep 15:19:49 15:42:13 40° 151° (SSE) 16:00:43 145.825 - 145.975 CW/USB, Beacon 145.810 USB
AO-Echo 17 Sep 15:28:06 15:32:35 38° 261° (W) 15:37:00 ?
ITAMSAT 1 17 Sep 15:33:15 15:38:08 43° 260° (W) 15:43:02 435.822 SSB
Uribyol 2 17 Sep 15:38:19 15:43:00 35° 261° (W) 15:47:43 436.500 FM
TMSAT-1 17 Sep 15:45:15 15:50:31 75° 76° (ENE) 15:55:48 436.925 FM
AO-27 17 Sep 16:09:14 16:12:42 18° 265° (W) 16:16:11 436.795 MHz FM
RS-15 17 Sep 16:17:19 16:27:47 47° 251° (WSW) 16:38:44 29.354 - 29.394 USB, Beacon 29.352 USB
AO-7 17 Sep 16:32:58 16:41:00 56° 69° (ENE) 16:49:02 29.400 - 29.500 MHz
Uosat F 17 Sep 16:35:46 16:40:18 36° 72° (ENE) 16:44:51 435.120 FM
Gurwin Techsat 1B 17 Sep 16:48:31 16:51:58 18° 265° (W) 16:55:26 435.225 FM
OPAL 17 Sep 17:34:53 17:39:27 32° 100° (E) 17:43:57 ?
Saudisat 1A 17 Sep 17:40:42 17:44:50 42° 113° (ESE) 17:48:59 436.775 MHz
Hamsat 17 Sep 17:41:38 17:43:59 14° 69° (ENE) 17:46:20 145.90 MHz
Uosat F 17 Sep 18:15:44 18:19:07 18° 264° (W) 18:22:30 435.120 FM
AO-7 17 Sep 18:27:29 18:33:59 25° 262° (W) 18:40:30 29.400 - 29.500 MHz
JAS-2 17 Sep 18:38:17 18:43:47 79° 76° (ENE) 18:48:58 435.800 - 435.900 CW/SSB, 435.910 FM
SO-67 17 Sep 19:11:47 19:14:00 16° 72° (ENE) 19:16:13 435.3500 MHz FM
OPAL 17 Sep 19:14:06 19:18:05 23° 293° (WNW) 19:22:01 ?
Hamsat 17 Sep 19:15:34 19:19:34 36° 262° (W) 19:23:36 145.90 MHz
Saudisat 1A 17 Sep 19:22:00 19:24:33 15° 307° (NW) 19:27:07 436.775 MHz
MaSat-1 17 Sep 19:28:46 19:32:18 52° 66° (ENE) 19:35:19 437.345 MHz
STRAND 1 17 Sep 19:50:26 19:55:20 45° 100° (E) 20:00:14 ?
KITSAT 1 17 Sep 19:58:52 20:06:48 64° 111° (ESE) 20:14:46 435.175 FM
SO-67 17 Sep 20:44:27 20:46:51 18° 264° (W) 20:49:15 435.3500 MHz FM
STRAND 1 17 Sep 21:31:00 21:34:06 16° 293° (WNW) 21:37:12 ?
HO-68 17 Sep 21:37:07 21:44:12 73° 73° (ENE) 21:51:19 435.675 MHz FM
KITSAT 1 17 Sep 21:56:23 22:02:40 24° 308° (NW) 22:08:59 435.175 FM
PCSat 17 Sep 21:58:23 22:01:58 18° 55° (NE) 22:05:32 145.825 MHz
FUNcube-1 17 Sep 22:03:29 22:05:10 12° 68° (ENE) 22:06:53 145.950 - 145.970 MHz USB
Oscar 11 17 Sep 22:16:40 22:20:53 51° 75° (ENE) 22:25:07 145.825 FM, Beacon 2401.500 USB
UKube-1 17 Sep 22:31:10 22:35:27 67° 258° (WSW) 22:39:46 145.840 MHz, 145.915 MHz
SO-50 17 Sep 22:45:10 22:49:17 40° 113° (ESE) 22:53:30 436.795 FM
